This demonstration page uses our WeatherBlox Daily Observations layout. Learn more.

Left ArrowRight Arrow

Hourly Observations for August 4, 2015

Temp ( °F °C ) Dew Point ( °F °C ) Humidity (%) Winds ( mph kmh ) Pressure ( in mb ) Visibility ( mi km ) Precip ( " mm )
12:53 am 00:53 Clear 79 26.1 54 12.2 42 42 SW 3 6 29.86 1011 10 16 0.00 0.00
1:53 am 01:53 Clear 77 25 51 10.6 40 40 S 7 11 29.88 1012 10 16 0.00 0.00
2:53 am 02:53 Clear 73 22.8 52 11.1 48 48 SSE 3 6 29.88 1012 10 16 0.00 0.00
3:53 am 03:53 Clear 71 21.7 51 10.6 49 49 S 6 9 29.89 1012 10 16 0.00 0.00
4:53 am 04:53 Clear 69 20.6 52 11.1 55 55 Calm 29.90 1013 10 16 0.00 0.00
5:53 am 05:53 Clear 66 18.9 51 10.6 59 59 Calm 29.91 1013 10 16 0.00 0.00
6:53 am 06:53 Sunny 66 18.9 52 11.1 61 61 Calm 29.92 1013 10 16 0.00 0.00
7:53 am 07:53 Sunny 69 20.6 53 11.7 57 57 WSW 6 9 29.92 1013 10 16 0.00 0.00
8:53 am 08:53 Sunny 72 22.2 52 11.1 50 50 Calm 29.91 1013 10 16 0.00 0.00
9:53 am 09:53 Sunny 76 24.4 51 10.6 42 42 SW 3 6 29.90 1012 10 16 0.00 0.00
10:53 am 10:53 Sunny 81 27.2 52 11.1 37 37 Calm 29.88 1012 10 16 0.00 0.00
11:53 am 11:53 Sunny 84 28.9 53 11.7 34 34 S 6 9 29.88 1012 10 16 0.00 0.00
12:53 pm 12:53 Sunny 89 31.7 48 8.9 24 24 SSW 8 13 29.86 1011 10 16 0.00 0.00
1:53 pm 13:53 Sunny 86 30 55 12.8 35 35 SSE 20 31 29.86 1011 10 16 0.00 0.00
2:53 pm 14:53 Sunny 84 28.9 54 12.2 36 36 S 13 20 29.88 1012 10 16 0.00 0.00
3:53 pm 15:53 Sunny 83 28.3 55 12.8 38 38 S 16 26 29.88 1012 10 16 0.00 0.00
4:53 pm 16:53 Sunny 81 27.2 54 12.2 39 39 SSE 12 19 29.90 1013 10 16 0.00 0.00
5:53 pm 17:53 Sunny 79 26.1 53 11.7 41 41 SSE 7 11 29.90 1013 10 16 0.00 0.00
6:53 pm 18:53 Sunny 78 25.6 53 11.7 42 42 S 5 7 29.90 1013 10 16 0.00 0.00
7:53 pm 19:53 Sunny 78 25.6 53 11.7 42 42 S 6 9 29.91 1013 10 16 0.00 0.00
8:53 pm 20:53 Clear 76 24.4 53 11.7 45 45 Calm 29.91 1013 10 16 0.00 0.00
9:53 pm 21:53 Clear 74 23.3 53 11.7 48 48 SSE 7 11 29.93 1014 10 16 0.00 0.00
10:53 pm 22:53 Clear 73 22.8 55 12.8 53 53 SW 5 7 29.94 1014 10 16 0.00 0.00
11:53 pm 23:53 Clear 71 21.7 54 12.2 55 55 Calm 29.94 1014 10 16 0.00 0.00

Powered by AerisWeather